• In Moldova, Republic
  • List of Countries
  • For 7 days
  • Water Temperature
  • Satellite Maps
  • Weather Map
  • Weather Widgets
  • user-avatar
    Login

    Hourly Weather Perth

    Today, 13 December, Wednesday

    Time Temperature Precipitation Wind Pressure Humidity
    00:00 +20°C° 0 mm 6 mps 759 mmHg 72%
    01:00 +19°C° 0 mm 6 mps 759 mmHg 74%
    02:00 +19°C° 0 mm 6 mps 759 mmHg 75%
    03:00 +17°C° 0 mm 5 mps 759 mmHg 76%
    04:00 +16°C° 0 mm 5 mps 759 mmHg 77%
    05:00 +16°C° 0 mm 5 mps 760 mmHg 78%
    06:00 +18°C° 0 mm 4 mps 760 mmHg 70%
    07:00 +20°C° 0 mm 4 mps 760 mmHg 62%
    08:00 +22°C° 0 mm 4 mps 761 mmHg 52%
    09:00 +23°C° 0 mm 4 mps 761 mmHg 46%
    10:00 +26°C° 0 mm 4 mps 761 mmHg 41%
    11:00 +27°C° 0 mm 4 mps 761 mmHg 36%
    12:00 +28°C° 0 mm 5 mps 760 mmHg 35%
    13:00 +29°C° 0 mm 5 mps 760 mmHg 35%
    14:00 +28°C° 0 mm 5 mps 760 mmHg 37%
    15:00 +28°C° 0 mm 6 mps 760 mmHg 39%
    16:00 +27°C° 0 mm 6 mps 760 mmHg 41%
    17:00 +27°C° 0 mm 6 mps 760 mmHg 43%
    18:00 +24°C° 0 mm 6 mps 760 mmHg 48%
    19:00 +23°C° 0 mm 6 mps 760 mmHg 53%
    20:00 +21°C° 0 mm 6 mps 761 mmHg 58%
    21:00 +21°C° 0 mm 6 mps 761 mmHg 58%
    22:00 +21°C° 0 mm 6 mps 761 mmHg 58%
    23:00 +20°C° 0 mm 6 mps 761 mmHg 58%

    Tomorrow, 14 December, Thursday

    Time Temperature Precipitation Wind Pressure Humidity
    00:00 +20°C° 0 mm 5 mps 761 mmHg 59%
    01:00 +20°C° 0 mm 5 mps 761 mmHg 59%
    02:00 +19°C° 0 mm 5 mps 761 mmHg 60%
    03:00 +19°C° 0 mm 5 mps 761 mmHg 61%
    04:00 +18°C° 0 mm 4 mps 761 mmHg 63%
    05:00 +18°C° 0 mm 4 mps 761 mmHg 65%
    06:00 +19°C° 0 mm 4 mps 761 mmHg 59%
    07:00 +21°C° 0 mm 4 mps 761 mmHg 54%
    08:00 +22°C° 0 mm 4 mps 761 mmHg 49%
    09:00 +26°C° 0 mm 3 mps 761 mmHg 43%
    10:00 +28°C° 0 mm 3 mps 761 mmHg 36%
    11:00 +31°C° 0 mm 2 mps 760 mmHg 30%
    12:00 +31°C° 0 mm 3 mps 760 mmHg 29%
    13:00 +33°C° 0 mm 4 mps 759 mmHg 29%
    14:00 +34°C° 0 mm 4 mps 759 mmHg 28%
    15:00 +32°C° 0 mm 5 mps 758 mmHg 31%
    16:00 +30°C° 0 mm 6 mps 758 mmHg 35%
    17:00 +29°C° 0 mm 6 mps 758 mmHg 38%
    18:00 +27°C° 0 mm 6 mps 758 mmHg 46%
    19:00 +24°C° 0 mm 6 mps 758 mmHg 54%
    20:00 +22°C° 0 mm 6 mps 758 mmHg 61%
    21:00 +22°C° 0 mm 6 mps 758 mmHg 63%
    22:00 +21°C° 0 mm 5 mps 758 mmHg 64%
    23:00 +21°C° 0 mm 5 mps 759 mmHg 66%

    Day after tomorrow, 15 December, Friday

    Time Temperature Precipitation Wind Pressure Humidity
    00:00 +21°C° 0 mm 5 mps 758 mmHg 67%
    01:00 +20°C° 0 mm 5 mps 758 mmHg 67%
    02:00 +20°C° 0 mm 5 mps 757 mmHg 68%
    03:00 +20°C° 0 mm 4 mps 757 mmHg 70%
    04:00 +19°C° 0 mm 4 mps 757 mmHg 71%
    05:00 +19°C° 0 mm 4 mps 757 mmHg 73%
    06:00 +21°C° 0 mm 4 mps 757 mmHg 66%
    07:00 +22°C° 0 mm 3 mps 757 mmHg 59%
    08:00 +25°C° 0 mm 3 mps 757 mmHg 52%
    09:00 +28°C° 0 mm 3 mps 757 mmHg 45%
    10:00 +32°C° 0 mm 4 mps 757 mmHg 37%
    11:00 +34°C° 0 mm 4 mps 756 mmHg 29%
    12:00 +35°C° 0 mm 4 mps 755 mmHg 29%
    13:00 +35°C° 0 mm 5 mps 755 mmHg 28%
    14:00 +35°C° 0 mm 6 mps 754 mmHg 27%
    15:00 +34°C° 0 mm 6 mps 754 mmHg 30%
    16:00 +33°C° 0 mm 6 mps 753 mmHg 32%
    17:00 +32°C° 0 mm 7 mps 753 mmHg 35%
    18:00 +29°C° 0 mm 7 mps 753 mmHg 42%
    19:00 +27°C° 0 mm 6 mps 754 mmHg 49%
    20:00 +24°C° 0 mm 6 mps 754 mmHg 56%
    21:00 +23°C° 0 mm 6 mps 754 mmHg 56%
    22:00 +23°C° 0 mm 6 mps 755 mmHg 57%
    23:00 +22°C° 0 mm 6 mps 755 mmHg 57%

    16 December, Saturday

    Time Temperature Precipitation Wind Pressure Humidity
    00:00 +22°C° 0 mm 5 mps 755 mmHg 59%
    01:00 +22°C° 0 mm 5 mps 755 mmHg 60%
    02:00 +22°C° 0 mm 5 mps 754 mmHg 62%
    03:00 +21°C° 0 mm 5 mps 754 mmHg 64%
    04:00 +21°C° 0 mm 4 mps 754 mmHg 65%
    05:00 +20°C° 0 mm 4 mps 754 mmHg 67%
    06:00 +22°C° 0 mm 4 mps 754 mmHg 62%
    07:00 +24°C° 0 mm 3 mps 755 mmHg 57%
    08:00 +25°C° 0 mm 3 mps 755 mmHg 52%
    09:00 +28°C° 0 mm 3 mps 755 mmHg 46%
    10:00 +30°C° 0 mm 4 mps 754 mmHg 40%
    11:00 +33°C° 0 mm 4 mps 754 mmHg 35%
    12:00 +33°C° 0 mm 5 mps 754 mmHg 34%
    13:00 +33°C° 0 mm 6 mps 753 mmHg 33%
    14:00 +33°C° 0 mm 6 mps 753 mmHg 32%
    15:00 +30°C° 0 mm 7 mps 753 mmHg 37%
    16:00 +29°C° 0 mm 7 mps 753 mmHg 41%
    17:00 +27°C° 0 mm 7 mps 753 mmHg 46%
    18:00 +24°C° 0 mm 7 mps 753 mmHg 56%
    19:00 +22°C° 0 mm 6 mps 754 mmHg 67%
    20:00 +21°C° 0 mm 6 mps 754 mmHg 77%
    21:00 +21°C° 0 mm 6 mps 754 mmHg 76%
    22:00 +20°C° 0 mm 6 mps 754 mmHg 74%
    23:00 +20°C° 0 mm 6 mps 754 mmHg 73%

    17 December, Sunday

    Time Temperature Precipitation Wind Pressure Humidity
    00:00 +20°C° 0.2 mm 6 mps 754 mmHg 74%
    01:00 +20°C° 0.2 mm 6 mps 753 mmHg 76%
    02:00 +20°C° 0.2 mm 6 mps 753 mmHg 78%
    03:00 +19°C° 0.1 mm 6 mps 753 mmHg 77%
    04:00 +19°C° 0.1 mm 6 mps 753 mmHg 75%
    05:00 +17°C° 0.1 mm 6 mps 753 mmHg 74%
    06:00 +17°C° 0.2 mm 6 mps 753 mmHg 72%
    07:00 +17°C° 0.2 mm 7 mps 754 mmHg 70%
    08:00 +17°C° 0.2 mm 7 mps 754 mmHg 68%
    09:00 +17°C° 0.1 mm 7 mps 754 mmHg 63%
    10:00 +17°C° 0.1 mm 7 mps 755 mmHg 57%
    11:00 +17°C° 0.1 mm 7 mps 755 mmHg 52%
    12:00 +17°C° 0.2 mm 8 mps 755 mmHg 52%
    13:00 +17°C° 0.2 mm 9 mps 754 mmHg 53%
    14:00 +17°C° 0.2 mm 9 mps 754 mmHg 53%
    15:00 +17°C° 0.1 mm 9 mps 754 mmHg 50%
    16:00 +18°C° 0.1 mm 9 mps 754 mmHg 48%
    17:00 +18°C° 0.1 mm 9 mps 754 mmHg 45%
    18:00 +17°C° 0 mm 8 mps 754 mmHg 49%
    19:00 +16°C° 0 mm 8 mps 755 mmHg 54%
    20:00 +15°C° 0 mm 7 mps 755 mmHg 58%
    21:00 +15°C° 0.1 mm 8 mps 755 mmHg 59%
    22:00 +15°C° 0.1 mm 8 mps 755 mmHg 60%
    23:00 +15°C° 0.1 mm 8 mps 755 mmHg 62%

    18 December, Monday

    Time Temperature Precipitation Wind Pressure Humidity
    00:00 +16°C° 0.2 mm 9 mps 754 mmHg 63%
    01:00 +16°C° 0.2 mm 9 mps 754 mmHg 64%
    02:00 +16°C° 0.2 mm 9 mps 754 mmHg 65%
    03:00 +16°C° 0.2 mm 9 mps 754 mmHg 65%
    04:00 +16°C° 0.2 mm 9 mps 754 mmHg 66%
    05:00 +16°C° 0.2 mm 9 mps 754 mmHg 67%
    06:00 +17°C° 0.1 mm 10 mps 754 mmHg 66%
    07:00 +17°C° 0.1 mm 10 mps 755 mmHg 65%
    08:00 +18°C° 0.1 mm 10 mps 755 mmHg 63%
    09:00 +18°C° 0.1 mm 10 mps 755 mmHg 60%
    10:00 +19°C° 0.1 mm 10 mps 756 mmHg 57%
    11:00 +21°C° 0.1 mm 10 mps 756 mmHg 54%
    12:00 +21°C° 0.1 mm 9 mps 756 mmHg 55%
    13:00 +19°C° 0.1 mm 9 mps 756 mmHg 56%
    14:00 +19°C° 0.1 mm 9 mps 756 mmHg 57%
    15:00 +20°C° 0 mm 8 mps 756 mmHg 57%
    16:00 +20°C° 0 mm 8 mps 756 mmHg 58%
    17:00 +20°C° 0 mm 8 mps 756 mmHg 58%
    18:00 +18°C° 0 mm 7 mps 757 mmHg 62%
    19:00 +17°C° 0 mm 6 mps 757 mmHg 65%
    20:00 +16°C° 0 mm 5 mps 758 mmHg 68%
    21:00 +16°C° 0 mm 5 mps 758 mmHg 70%
    22:00 +16°C° 0 mm 5 mps 758 mmHg 73%
    23:00 +15°C° 0 mm 5 mps 759 mmHg 75%
    Show more